Location: Marineo
(37.9500°N, 13.4170°E)
Time: 00:45:40
(UTC+01:00)

ISS - Visible Passes

Search period start: 24 January 2019 00:00
Search period end: 03 February 2019 00:00
Orbit: 404 x 410 km, 51.6° (Epoch: 24 January)

Date Brightness Start Highest point End Pass type
(mag) Time Alt. Az. Time Alt. Az. Time Alt. Az.
24 Jan -3.7 17:45:11 10° SW 17:48:24 63° SE 17:51:41 10° NE visible
24 Jan -1.4 19:22:50 10° WNW 19:24:47 18° NW 19:24:47 18° NW visible
25 Jan -2.1 18:30:48 10° W 18:33:40 27° NNW 18:35:41 16° NNE visible
26 Jan -1.0 19:18:09 10° NW 19:19:13 12° NNW 19:19:13 12° NNW visible
27 Jan -1.4 18:25:37 10° WNW 18:27:42 16° NNW 18:29:47 10° NNE visible
29 Jan -1.1 18:21:16 10° NNW 18:21:50 10° NNW 18:22:23 10° N visible
